Location: Newark
(52.3500°N, 175.9667°E)
Time: 21:11:40
(UTC+00:00)

Transit 4A - Pass Details

Date: 21 April 2021
Orbit: 871 x 974 km, 66.8° (Epoch: 16 May)

Event Time Altitude Azimuth Distance (km) Brightness Sun altitude
Rises 11:20:36 0° 199° (SSW) 3,622 - -24.6°
Reaches altitude 10° 11:23:13 10° 194° (SSW) 2,667 - -24.7°
Exits shadow 11:28:57 53° 129° (SE) 1,137 8.0 -24.9°
Maximum altitude 11:29:13 53° 120° (ESE) 1,132 8.0 -24.9°
Drops below altitude 10° 11:35:06 10° 45° (NE) 2,614 10.6 -25.1°
Sets 11:37:38 0° 41° (NE) 3,543 11.5 -25.1°
